Weather History for Scappoose, OR

Change the Weather History Date:

Sunday, September 29, 2013

  Actual Average Record
Temperature  
Mean Temperature 54 °F -  
Max Temperature 57 °F - 91 °F (2008)
Min Temperature 46 °F - 26 °F (2008)
Degree Days  
Heating Degree Days 13    
Month to date heating degree days 118  
Since 1 July heating degree days 142  
Cooling Degree Days 0    
Month to date cooling degree days 72  
Year to date cooling degree days 396  
Growing Degree Days 4 (Base 50)    
Moisture  
Dew Point 51 °F    
Average Humidity 90    
Maximum Humidity 93    
Minimum Humidity 86    
Precipitation  
Precipitation 1.56 in - 1.57 in (2013)
Month to date precipitation 6.82  
Year to date precipitation 21.36  
Sea Level Pressure  
Sea Level Pressure 29.58 in    
Wind  
Wind Speed 7 mph (SSE)    
Max Wind Speed 18 mph    
Max Gust Speed 31 mph    
Visibility 7 miles    
Events Rain    
T = Trace of Precipitation, MM = Missing Value Source: NWS Daily Summary

Daily Weather History Graph

Daily Weather History Graph

Search for Another Location

Airport:

Trip Planner

Search our weather history database for the weather conditions in past years. The results will help you decide how hot, cold, wet, or windy it might be!

Date:

Astronomy

Sep. 29, 2013 Rise Set
Actual Time 7:07 AM PDT 6:54 PM PDT
Civil Twilight 6:38 AM PDT 7:24 PM PDT
Nautical Twilight 6:03 AM PDT 7:58 PM PDT
Astronomical Twilight 5:28 AM PDT 8:33 PM PDT
Moon 1:40 AM PDT (9/29) 4:06 PM PDT (9/29)
Length of Visible Light 12h 46m
Length of Day
11h 47m
Waning Crescent, 26% of the Moon is Illuminated
Sep 29
Waning Crescent
Oct 4
New
Oct 11
First Quarter
Oct 18
Full
Oct 26
Last Quarter

Hourly Weather History & Observations

Time (PDT) Temp. Dew Point Humidity Pressure Visibility Wind Dir Wind Speed Gust Speed Precip Events Conditions
12:09 AM 53.6 °F 50.0 °F 88% 29.62 in 10.0 mi SE 6.9 mph - 0.01 in   Overcast
12:53 AM 53.1 °F 50.0 °F 89% 29.63 in 10.0 mi SSE 5.8 mph - 0.01 in Rain Light Rain
1:53 AM 54.0 °F 50.0 °F 86% 29.63 in 10.0 mi SSE 4.6 mph - 0.03 in   Overcast
2:53 AM 54.0 °F 50.0 °F 86% 29.64 in 10.0 mi SSE 4.6 mph - 0.01 in   Overcast
3:28 AM 53.6 °F 50.0 °F 88% 29.64 in 5.0 mi South 8.1 mph - 0.08 in Rain Light Rain
3:51 AM 53.6 °F 50.0 °F 88% 29.64 in 10.0 mi SSW 5.8 mph - 0.09 in Rain Light Rain
3:53 AM 53.1 °F 50.0 °F 89% 29.65 in 10.0 mi SSW 5.8 mph - 0.09 in Rain Light Rain
4:38 AM 51.8 °F 50.0 °F 94% 29.63 in 10.0 mi SE 4.6 mph - 0.00 in   Scattered Clouds
4:53 AM 53.1 °F 50.0 °F 89% 29.64 in 10.0 mi SSE 4.6 mph - 0.00 in Rain Light Rain
5:53 AM 53.1 °F 51.1 °F 93% 29.64 in 3.0 mi Calm Calm - 0.12 in Rain Rain
6:14 AM 53.6 °F 51.8 °F 94% 29.63 in 7.0 mi Calm Calm - 0.02 in Rain Light Rain
6:22 AM 53.6 °F 51.8 °F 94% 29.63 in 7.0 mi Calm Calm - 0.03 in Rain Light Rain
6:53 AM 54.0 °F 51.1 °F 90% 29.63 in 8.0 mi SSE 3.5 mph - 0.07 in Rain Light Rain
7:53 AM 54.0 °F 52.0 °F 93% 29.63 in 7.0 mi SSE 6.9 mph - 0.09 in Rain Light Rain
8:25 AM 53.6 °F 51.8 °F 94% 29.63 in 2.5 mi SSE 5.8 mph - 0.06 in Rain Rain
8:43 AM 53.6 °F 51.8 °F 94% 29.63 in 2.5 mi Calm Calm - 0.12 in Rain Rain
8:48 AM 53.6 °F 51.8 °F 94% 29.64 in 3.0 mi Variable 4.6 mph - 0.13 in Rain Rain
8:53 AM 54.0 °F 52.0 °F 93% 29.64 in 4.0 mi WSW 4.6 mph - 0.13 in Rain Light Rain
9:05 AM 55.4 °F 51.8 °F 88% 29.64 in 9.0 mi SSW 5.8 mph - 0.01 in Rain Light Rain
9:53 AM 54.0 °F 51.1 °F 90% 29.65 in 7.0 mi South 4.6 mph - 0.03 in Rain Light Rain
10:53 AM 54.0 °F 52.0 °F 93% 29.66 in 9.0 mi South 6.9 mph - 0.02 in Rain Light Rain
11:22 AM 53.6 °F 51.8 °F 94% 29.66 in 6.0 mi South 5.8 mph - 0.04 in Rain Light Rain
11:53 AM 54.0 °F 51.1 °F 90% 29.66 in 10.0 mi SSE 8.1 mph - 0.06 in Rain Light Rain
12:03 PM 53.6 °F 51.8 °F 94% 29.66 in 10.0 mi SSE 8.1 mph - 0.01 in Rain Light Rain
12:20 PM 53.6 °F 51.8 °F 94% 29.65 in 7.0 mi SSE 10.4 mph - 0.02 in Rain Light Rain
12:49 PM 55.4 °F 51.8 °F 88% 29.63 in 9.0 mi SSE 10.4 mph - 0.04 in Rain Light Rain
12:53 PM 54.0 °F 51.1 °F 90% 29.63 in 10.0 mi SSE 11.5 mph - 0.05 in Rain Light Rain
1:00 PM 55.4 °F 51.8 °F 88% 29.63 in 10.0 mi SSE 11.5 mph - 0.00 in Rain Light Rain
1:34 PM 55.4 °F 51.8 °F 88% 29.61 in 6.0 mi SSE 8.1 mph - 0.03 in Rain Light Rain
1:41 PM 55.4 °F 51.8 °F 88% 29.61 in 5.0 mi SSE 10.4 mph 17.3 mph 0.04 in Rain Light Rain
1:48 PM 53.6 °F 51.8 °F 94% 29.61 in 5.0 mi SSE 10.4 mph 17.3 mph 0.06 in Rain Rain
1:53 PM 54.0 °F 51.1 °F 90% 29.60 in 5.0 mi SSE 8.1 mph - 0.06 in Rain Light Rain
2:04 PM 53.6 °F 51.8 °F 94% 29.60 in 6.0 mi SSE 6.9 mph - 0.02 in Rain Rain
2:53 PM 55.0 °F 52.0 °F 89% 29.57 in 4.0 mi SSE 8.1 mph - 0.11 in Rain Rain
3:36 PM 55.4 °F 51.8 °F 88% 29.54 in 5.0 mi South 9.2 mph 18.4 mph 0.08 in Rain Rain
3:53 PM 55.0 °F 52.0 °F 89% 29.53 in 5.0 mi SSE 10.4 mph 16.1 mph 0.10 in Rain Light Rain
4:06 PM 55.4 °F 51.8 °F 88% 29.51 in 5.0 mi SSE 12.7 mph 18.4 mph 0.02 in Rain Light Rain
4:17 PM 55.4 °F 51.8 °F 88% 29.50 in 10.0 mi SSE 10.4 mph 20.7 mph 0.02 in Rain Light Rain
4:53 PM 55.0 °F 52.0 °F 89% 29.48 in 5.0 mi South 12.7 mph 21.9 mph 0.06 in Rain Rain
5:53 PM 55.0 °F 52.0 °F 89% 29.43 in 6.0 mi South 9.2 mph 21.9 mph 0.09 in Rain Light Rain
6:53 PM 55.0 °F 52.0 °F 89% 29.39 in 3.0 mi South 12.7 mph 28.8 mph 0.08 in Rain Rain
7:53 PM 55.9 °F 52.0 °F 87% 29.34 in 4.0 mi South 13.8 mph 29.9 mph 0.09 in Rain Rain
8:14 PM 55.4 °F 53.6 °F 94% 29.35 in 2.5 mi South 13.8 mph 23.0 mph 0.11 in Rain Rain
8:22 PM 55.4 °F 53.6 °F 94% 29.37 in 2.0 mi South 15.0 mph 27.6 mph 0.19 in Rain Heavy Rain
8:31 PM 55.4 °F 53.6 °F 94% 29.37 in 3.0 mi South 10.4 mph 27.6 mph 0.22 in Rain Rain
8:53 PM 57.0 °F 53.1 °F 87% 29.40 in 6.0 mi SW 12.7 mph 19.6 mph 0.24 in Rain Light Rain
9:53 PM 55.9 °F 51.1 °F 84% 29.46 in 10.0 mi West 3.5 mph - 0.03 in Rain Light Rain
10:53 PM 53.1 °F 46.9 °F 80% 29.52 in 10.0 mi Calm Calm - 0.00 in   Clear
11:53 PM 46.9 °F 45.0 °F 93% 29.57 in 10.0 mi Calm Calm - N/A   Partly Cloudy